Regional Weather Roundup
Issued by NWS

Home | Current Version | Previous Version | Text Only | Print | Product List | Glossary On
Versions: 1 2 3 4 5 6 7 8 9 10 11 12 13 14 15 16 17 18 19 20 21 22 23 24 25 26 27 28 29 30 31 32 33 34 35 36 37 38 39 40 41 42 43 44 45 46 47 48 49 50
000
ASUS45 KABQ 312010
RWRNM
NEW MEXICO REGIONAL WEATHER ROUNDUP
NATIONAL WEATHER SERVICE ALBUQUERQUE NM
200 PM MDT FRI JUL 31 2015

NOTE: "FAIR" MEANS FEW OR NO CLOUDS BELOW 12,000 FEET AGL WITH NO
       SIGNIFICANT WEATHER OR OBSTRUCTIONS TO VISION.

      THIS PRODUCT IS RELEASED AS TWO VERSIONS.  ONE VERSION NEAR
      THE TOP OF THE HOUR CONTAINING PRELIMINARY DATA FROM ALBUQUERQUE
      AND OTHER STATIONS.  A FINAL VERSION WITH ADDITIONAL DATA IS
      ISSUED ABOUT 10 MINUTES AFTER THE HOUR.

NMZ501-503-504-510>518-312100-
NORTHWEST PLATEAU/NORTHCENTRAL MOUNTAINS

CITY           SKY/WX    TMP DP  RH WIND       PRES   REMARKS
FARMINGTON     MOSUNNY   81  59  47 VRB7      30.30F
LOS ALAMOS     HVY RAIN  61  53  76 N9G28     30.47R
SANTA FE       PTSUNNY   73  57  57 S6        30.38F
TAOS           CLOUDY    75  50  41 SW17G24   30.42S
ANGEL FIRE     MOCLDY    65  53  65 S16       30.51S

$$
NMZ402-403-502-505>509-312100-
WESTCENTRAL MOUNTAINS/SOUTHWEST MOUNTAINS

CITY           SKY/WX    TMP DP  RH WIND       PRES   REMARKS
GALLUP         CLOUDY    78  54  43 N9        30.36F
GRANTS         PTSUNNY   77  59  54 S3        30.37F
SILVER CITY      N/A     82  55  39 S8G22     30.32F

$$
NMZ407-409-411-412-312100-
SOUTHERN DESERTS

CITY           SKY/WX    TMP DP  RH WIND       PRES   REMARKS
LORDSBURG      FAIR      86  59  39 SE10G16   30.21F
DEMING         SUNNY     84  62  47 VRB5      30.23F
LAS CRUCES     SUNNY     85  60  42 SE3       30.24F
HOLLOMAN AFB   SUNNY     92  54  27 N8G17     30.18F
ALAMOGORDO     MOSUNNY   91  50  24 S13G21    30.20F
T OR C         MOSUNNY   84  56  38 SW8       30.26F

$$
NMZ519>523-312100-
CENTRAL VALLEYS/CENTRAL HIGHLANDS

CITY           SKY/WX    TMP DP  RH WIND       PRES   REMARKS
ALBUQUERQUE    PTSUNNY   83  58  42 VRB3      30.30F
DOUBLE EAGLE   PTSUNNY   81  61  50 VRB7      30.34F
MORIARTY ARPT    N/A     68  57  69 CALM      30.38F
CLINES CORNERS MOSUNNY   75  60  59 W17       30.40
BELEN          FAIR      84  57  39 E7        30.29F
SOCORRO        FAIR      86  52  30 SE7       30.26F

$$
NMZ524>526-539-540-312100-
SOUTHCENTRAL MOUNTAINS

CITY           SKY/WX    TMP DP  RH WIND       PRES   REMARKS
RUIDOSO          N/A    N/A N/A N/A MISG        N/A

$$
NMZ527>531-312100-
NORTHEAST HIGHLANDS/NORTHEAST PLAINS

CITY           SKY/WX    TMP DP  RH WIND       PRES   REMARKS
LAS VEGAS      PTSUNNY   66  54  65 NW14      30.42S
RATON          MOSUNNY   81  55  40 E10       30.34F
CLAYTON        PTSUNNY   81  62  52 S8        30.28F

$$
NMZ532>537-312100-
EASTCENTRAL PLAINS

CITY           SKY/WX    TMP DP  RH WIND       PRES   REMARKS
TUCUMCARI      PTSUNNY   77  65  66 CALM      30.25F
CANNON AFB     MOSUNNY   83  65  54 NE5       30.26F
CLOVIS AIRPORT MOSUNNY   84  63  48 S5        30.27F

$$
NMZ028-029-538-312100-
SOUTHEAST PLAINS

CITY           SKY/WX    TMP DP  RH WIND       PRES   REMARKS
ROSWELL        MOSUNNY   91  58  32 E7        30.18F
ARTESIA        SUNNY     93  55  27 VRB6G13   30.18F
CARLSBAD       SUNNY     95  54  25 NE6       30.15F
HOBBS          MOSUNNY   93  48  21 E9        30.19F


$$


USA.gov is the U.S. government's official web portal to all federal, state and local government web resources and services.